{"data":{"norad_id":65236,"epoch":"2026-09-19T08:09:06.274944Z","epoch_age_seconds":217728,"freshness":"STALE","line1":"1 65236U 25179B   26262.33965596  .00011594  00000+0  36090-3 0  9990","line2":"2 65236  97.2842 301.6585 0001184  89.9355 270.2024 15.33445199 61184","mean_motion":15.33445199,"eccentricity":0.0001184,"inclination_deg":97.2842,"raan_deg":301.6585,"arg_perigee_deg":89.9355,"mean_anomaly_deg":270.2024,"bstar":0.0003609,"rev_number":6118,"period_min":93.906192470332,"perigee_km":464.73229073165,"apogee_km":466.35287405676,"semimajor_km":6843.6795823942,"source":"CELESTRAK","updated_at":"2026-09-21T09:00:35.539618Z"}}